Вернуться в каталог

FORMOSAT 3F

АктивенПогодаLEO
NORAD 29052·PAYLOAD·🇹🇼 Taiwan

Запущен Apr 15, 2006 с Vandenberg Space Force Base

Loading…

Ближайшие Пролёты (ближайшие 24 часа)

TLE

СвежийSource: Space-Track

Эпоха: Sep 14, 2026, 02:58 UTC

1 29052U 06011F   26257.12402095  .00000327  00000-0  13685-3 0  9999
2 29052  72.0323 200.4127 0038700   2.8523 357.2828 14.31674926 65516

Отслеживайте FORMOSAT 3F в реальном времени с AllMySat

Download on the App Store